Location: Zagreb
(45.8000°N, 16.0000°E)
Time: 19:55:51
(UTC+01:00)

DX 1 - Pass Details

Date: 08 November 2020
Orbit: 619 x 630 km, 98.5° (Epoch: 01 December)

Event Time Altitude Azimuth Distance (km) Brightness Sun altitude
Exits shadow 17:20:04 - 46° (NE) 2,189 ? -8.6°
Reaches altitude 10° 17:20:46 10° 53° (NE) 2,004 ? -8.8°
Maximum altitude 17:23:29 16° 91° (E) 1,637 ? -9.2°
Drops below altitude 10° 17:26:11 10° 130° (SE) 1,998 ? -9.7°
Sets 17:29:08 0° 152° (SSE) 2,901 ? -10.2°
